PSLV R/B

Satellite information

Favourite Embed

Satellite Type and Status

ROCKET BODYIN ORBIT

Key statistics

Satellite PSLV R/B at a glance.

Uptime

735

Days in orbit

Revolutions

≈ 4.5

Per day

Orbit

MEO

Medium Earth Orbit

Inclination

19.2

Latest

Satellite identification and parameters

Extended collection of information and parameters for PSLV R/B.

Object identification

Identified? True

Debris? False

Object name: PSLV R/B

International designator: 2023-132B

Object number (NORAD): 57755

Object ID (CCSDS): 57755

Country: INDIA (IND)

Current information (Y/N): Y

RCS size: LARGE

Orbital parameters

Period: 321.963 minutes

Inclination: 19.1726 deg

SMA: 15560.775 km

Apoapsis: 18139.004 km

Periapsis: 226.276 km

RAAN: 88.3334 deg

Eccentricy: 0.57557314

Argument of periapsis: 102.1843 deg

Mean anomaly: 324.5925 deg

Mean motion: 4.47255746 rev/day

Mean motion (dot): 0.00037123 rev/day2

B* drag term: 0.0020762492 1/REarth

Two-line elements (TLE)

Creation date: Sept. 6, 2025, 2:09 a.m.

Reference frame: TEME

Reference center: EARTH

Epoch: Sept. 5, 2025, 5:07 p.m. UTC

TLE line 0: 0 PSLV R/B

TLE line 1: 1 57755U 23132B 25248.71322392 .00037123 00000-0 20762-2 0 9995

TLE line 2: 2 57755 19.1726 88.3334 5755731 102.1843 324.5925 4.47255746 31860

Live tracking on map

Real-time ground track for satellite PSLV R/B.

In-orbit conjunctions

There are no conjunctions computed for PSLV R/B, at the moment. Check back to stay up to date, as we update our databases every day.

Go to all conjunctions

Associated space launch

Aditya L1 is an Indian solar observation satellite to be placed at the Sun-Earth Lagrangian point L1. The major scientific objectives of the mission are to achieve a fundamental understanding of the physical processes that heat the solar corona, accelerate the solar wind and produce Coronal Mass Ejections (CMEs). Originally the mission design started as a small LEO satellite carrying only a coronagraph as a payload. In order to get the best science from the Sun, continuous viewing of the Sun is preferred. A Satellite placed in the halo orbit around the L1 Lagrangian point of the Sun-Earth system has the major advantage of continuously viewing the Sun without any occultation/ eclipses.

PSLV R/B was lifted into orbit during the mission ‘PSLV-XL | Aditya-L1’, on board a PSLV-XL space rocket.

The launch took place on Sept. 2, 2023, 6:20 a.m. from Satish Dhawan Space Centre Second Launch Pad.

For more information about the launch, click the button.

Launch to space PSLV-XL | Aditya-L1
PSLV-XL | Aditya-L1

Agency: Indian Space Research Organization

Status: Launch Successful

Launch date: Sept. 2, 2023, 6:20 a.m. UTC

Rocket: PSLV-XL

Launch pad: Satish Dhawan Space Centre Second Launch Pad

Location: Satish Dhawan Space Centre, India

...

Latest news about this satellite

News about space launch
India’s Aditya-L1 solar observatory enters orbit around Lagrange point

India’s Aditya-L1 solar observatory has reached its destination orbit around Sun-Earth Lagrange point 1 around 1.5 million kilometers from Earth.

News about space launch
India launches first solar research mission, Aditya-L1, aboard PSLV

India’s space program continued its busy 2023 with the launch of its first solar research mission, Aditya-L1, on Saturday. Liftoff, aboard the country’s Polar Satellite Launch Vehicle (PSLV) XL rocket, occurred at 11:50 Indian Standard Time (06:20 UTC) fr...


Newsletter sign-up

Weekly statistics, charts and insights to help you stay on top of the space industry.